Ord, NE

6:23 PM CST on February 06, 2016 (GMT -0600)
Sharp

Weather History for KODX - March, 2014

Change the Weather History Date:

Saturday, March 29, 2014

  Actual Average Record
Temperature  
Mean Temperature 41 °F 43 °F  
Max Temperature 64 °F 56 °F 75 °F (1998)
Min Temperature 18 °F 30 °F 16 °F (2003)
Degree Days  
Heating Degree Days 24 22  
Month to date heating degree days 913 803  
Since 1 July heating degree days 5820  
Cooling Degree Days 0 0  
Month to date cooling degree days 0 0  
Year to date cooling degree days 0 0  
Moisture  
Dew Point 23 °F    
Average Humidity 60    
Maximum Humidity 96    
Minimum Humidity 24    
Precipitation  
Precipitation 0.00 in 0.10 in 0.92 in (1901)
Month to date precipitation 0.20 1.25  
Year to date precipitation 0.45 2.06  
Sea Level Pressure  
Sea Level Pressure 30.18 in    
Wind  
Wind Speed 13 mph (SSW)    
Max Wind Speed 29 mph    
Max Gust Speed 35 mph    
Visibility 7 miles    
Events Fog    
T = Trace of Precipitation, MM = Missing Value Source: NWS Daily Summary

Daily Weather History Graph

Daily Weather History Graph

Search for Another Location

Airport or City:

Trip Planner

Search our weather history database for the weather conditions in past years. The results will help you decide how hot, cold, wet, or windy it might be!

Date:

Astronomy

Mar. 29, 2014 Rise Set
Actual Time 7:23 AM CDT 7:57 PM CDT
Civil Twilight 6:55 AM CDT 8:25 PM CDT
Nautical Twilight 6:22 AM CDT 8:58 PM CDT
Astronomical Twilight 5:49 AM CDT 9:32 PM CDT
Moon 6:34 AM CDT (3/29) 7:04 PM CDT (3/29)
Length of Visible Light 13h 30m
Length of Day
12h 34m
Waning Crescent, 2% of the Moon is Illuminated
Mar 29
Waning Crescent
Mar 30
New
Apr 7
First Quarter
Apr 15
Full
Apr 22
Last Quarter

Hourly Weather History & Observations

Time (CDT) Temp. Windchill Dew Point Humidity Pressure Visibility Wind Dir Wind Speed Gust Speed Precip Events Conditions
12:21 AM 25.0 °F 17.1 °F 21.0 °F 85% 30.25 in 10.0 mi NNE 6.9 mph - N/A   Overcast
12:53 AM 24.1 °F 19.7 °F 21.0 °F 88% 30.32 in 10.0 mi ENE 3.5 mph - N/A   Overcast
1:53 AM 24.1 °F 19.7 °F 21.0 °F 88% 30.31 in 10.0 mi North 3.5 mph - N/A   Overcast
2:53 AM 21.9 °F 14.5 °F 19.9 °F 92% 30.32 in 10.0 mi West 5.8 mph - N/A   Overcast
3:33 AM 21.9 °F 15.7 °F 19.9 °F 92% 30.24 in 9.0 mi SW 4.6 mph - N/A   Overcast
3:53 AM 23.0 °F 13.9 °F 21.0 °F 92% 30.31 in 8.0 mi WSW 8.1 mph - N/A   Overcast
4:20 AM 21.9 °F 15.7 °F 21.0 °F 96% 30.23 in 8.0 mi SW 4.6 mph - N/A   Overcast
4:39 AM 21.0 °F 16.2 °F 21.0 °F 100% 30.23 in 3.0 mi South 3.5 mph - N/A   Overcast
4:46 AM 21.0 °F 14.6 °F 21.0 °F 100% 30.23 in 1.8 mi West 4.6 mph - N/A   Overcast
4:53 AM 21.0 °F 16.2 °F 19.9 °F 96% 30.30 in 0.8 mi WSW 3.5 mph - N/A   Overcast
5:53 AM 21.0 °F 16.2 °F 19.9 °F 96% 30.31 in 0.2 mi WSW 3.5 mph - N/A Fog Light Freezing Fog
6:17 AM 19.9 °F 14.9 °F 19.0 °F 96% 30.22 in 1.2 mi South 3.5 mph - N/A   Overcast
6:25 AM 19.9 °F - 18.0 °F 92% 30.22 in 0.8 mi Calm Calm - N/A   Mist
6:53 AM 19.9 °F 13.4 °F 18.0 °F 92% 30.32 in 0.8 mi SSW 4.6 mph - N/A   Mist
6:58 AM 19.9 °F 13.4 °F 18.0 °F 92% 30.23 in 1.2 mi South 4.6 mph - N/A   Overcast
7:11 AM 19.0 °F - 18.0 °F 96% 30.22 in 1.0 mi Calm Calm - N/A   Mist
7:20 AM 19.0 °F 13.9 °F 18.0 °F 96% 30.22 in 2.0 mi Variable 3.5 mph - N/A   Mostly Cloudy
7:26 AM 19.0 °F - 17.1 °F 92% 30.22 in 6.0 mi Calm Calm - N/A   Scattered Clouds
7:53 AM 19.9 °F - 18.0 °F 92% 30.31 in 7.0 mi Calm Calm - N/A   Clear
8:53 AM 24.1 °F 16.0 °F 21.0 °F 88% 30.30 in 10.0 mi South 6.9 mph - N/A   Clear
9:53 AM 30.9 °F 21.7 °F 23.0 °F 72% 30.29 in 10.0 mi South 11.5 mph - N/A   Clear
10:53 AM 37.0 °F 29.3 °F 26.1 °F 65% 30.26 in 10.0 mi South 11.5 mph - N/A   Clear
11:53 AM 44.1 °F 36.5 °F 28.0 °F 53% 30.23 in 10.0 mi South 17.3 mph - N/A   Clear
12:53 PM 48.9 °F - 28.9 °F 46% 30.19 in 10.0 mi South 19.6 mph - N/A   Clear
1:53 PM 55.0 °F - 28.9 °F 37% 30.12 in 10.0 mi South 20.7 mph 28.8 mph N/A   Clear
2:53 PM 59.0 °F - 28.9 °F 32% 30.08 in 10.0 mi South 24.2 mph 29.9 mph N/A   Clear
3:53 PM 61.0 °F - 28.9 °F 30% 30.04 in 10.0 mi SSW 24.2 mph 33.4 mph N/A   Clear
4:53 PM 62.1 °F - 30.0 °F 30% 30.00 in 10.0 mi South 23.0 mph 31.1 mph N/A   Clear
5:53 PM 62.1 °F - 28.9 °F 29% 29.96 in 10.0 mi South 17.3 mph 25.3 mph N/A   Clear
6:53 PM 64.0 °F - 27.0 °F 25% 29.95 in 10.0 mi South 17.3 mph 24.2 mph N/A   Clear
7:53 PM 59.0 °F - 26.1 °F 28% 29.95 in 10.0 mi South 16.1 mph - N/A   Clear
8:53 PM 55.0 °F - 27.0 °F 34% 29.96 in 10.0 mi South 12.7 mph - N/A   Clear
9:53 PM 54.0 °F - 27.0 °F 35% 29.96 in 10.0 mi South 16.1 mph 25.3 mph N/A   Clear
10:53 PM 53.1 °F - 28.0 °F 38% 29.95 in 10.0 mi South 16.1 mph - N/A   Clear
11:53 PM 51.1 °F - 28.0 °F 41% 29.94 in 10.0 mi South 13.8 mph - N/A   Clear